SKBQ

Details ICAO SKBQ (BAQ)
Name Ernesto Cortissoz
Region Colombia
Timezone America/Bogota (UTC-5.0)
Plans Departing 220
Arriving 218
Stats Elevation 98 ft / 30 m (AMSL)
Location 10.889589° -74.780820°
Runways 1
Magnetic Variation 7.784° W
Sunrise 2018-05-26 10:36:54 UTC / 2018-05-26 05:36:54 Local
Sunset 2018-05-26 23:18:21 UTC / 2018-05-26 18:18:21 Local
Advertisement - Login to hide

Runways

ID Width Length Bearing (true) Bearing (mag) Surface Threshold Offset Overrun Length
05 148 ft / 45 m 9,863 ft / 3,006 m 40.09° 47.87° Concrete 0 ft / 0 m 105 ft / 32 m
23 148 ft / 45 m 9,863 ft / 3,006 m 220.09° 227.87° Concrete 0 ft / 0 m 0 ft / 0 m

Approach Navaids

Runway Type Ident Frequency Range Bearing (true) Bearing (mag) Slope Elevation
05 Localiser IBAQ 109.90 MHz 18 nm / 33 km 39.98° 47.76° - 98 ft / 30 m (AMSL)
05 Glidescope IBAQ 109.90 MHz 10 nm / 19 km 40.09° 47.88° 3.00° 98 ft / 30 m (AMSL)

Map

Weather


0- 5 10 15 20 25 30 35+ Temperature / ° C

Clouds and Precipitation
Forecast for 2018-05-26 18:00 UTC. Updated 3 hours ago

Ground ~20,000 ft ~40,000 ft Winds

METAR

SKBQ 262000Z 35027KT 240V030 1500 +TSRA SCT005CB BKN008 23/22 A2976 RMK CB SW/NE

TAF

Not found

Frequencies

Ground 121.90 MHz GND
Approach 119.10 MHz BARRANQUILLA APP
Tower 118.10 MHz TWR
Warning: Do not use this data for real-world aviation or navigation. No guarantee of current accuracy is given.